POPACS 3

导读

POPACS 3是美国于2013年9月29日08:00发射的一颗人造卫星,作为美国航天发射任务的组成部分,承担着空间技术相关试验与应用任务。该卫星进入预定轨道后,服务于美国空间科学研究或航天技术验证方向,延续了美国在航天领域持续推进卫星部署、探索太空利用的发展脉络,是美国2013年航天发射活动的重要节点之一。

基本信息
目录编号:
39270
目录名称:
POPACS 3
国际标识:
2013-055F
轨道中心:
EARTH
卫星名称:
POPACS 3
卫星全名:
--
卫星状态:
在轨 (已飞行4730 天)
发射日期:
2013-09-29 UTC
国别 :
美国 (US)
星等 :
--
该卫星已列入 空间交会检测服务 Space Conjunction Data Service (SCDS) ,当前飞行风险评估等级: 高风险
轨道信息
数据来源 国际轨道数据
星历时间: 2026-09-11T10:36:20+0800
15小时前
查看轨道信息
半长轴: 7079.822km
偏心率: 0.0546423
轨道倾角: 81.002°
近地点辐角 167.714°
升交点赤经 135.911°
平近点角 193.803°
近地点: 314.827km
远地点: 1088.543km
周期: 98.808分钟
每日圈数: 14.573681
详细信息
使用方式:
暂无
2D轨道图
3D轨道图
轨道高度分析图
轨道倾角分析图
轨道综合分析图
查看轨道综合分析图
交会数据列表
事件ID 空间交会对象 最接近时刻(TCA) 交会距离 交会风险概率(CRP) 交会风险指数(CRI) 操作
CDM_260911-210803-927005-972823
POPACS 3 (39270)
2026-09-11T
21:08:47+0000
0.318 km
远距离
4.463131E-4 高风险 0.88
CDM_260910-143803-927005-453224
POPACS 3 (39270)
2026-09-10T
14:38:54+0000
1.009 km
极远距离
2.630894E-5 中风险 0.63
CDM_260912-002603-927006-737827
POPACS 3 (39270)
AETHER-7 (67378)
2026-09-12T
00:26:25+0000
1.127 km
极远距离
1.63395E-5 中风险 0.59
CDM_260912-111803-927003-990723
POPACS 3 (39270)
2026-09-12T
11:18:45+0000
1.524 km
极远距离
5.971375E-6 低风险 0.51
CDM_260909-220903-173103-927024
POPACS 3 (39270)
2026-09-09T
22:09:23+0000
2.808 km
极远距离
1.458929E-6 低风险 0.38
与全量物体交会距离演化趋势
与全量物体交会风险概率演化趋势